Location: Cahas Mountain Overlook
(37.0833°N, 80.1000°W)
Time: 10:25:43
(UTC-04:00)

Vanguard 1 Rocket - Pass Details

Date: 17 February 2026
Orbit: 653 x 4214 km, 34.3° (Epoch: 15 March)

Event Time Altitude Azimuth Distance (km) Brightness Sun altitude
Rises 22:22:12 0° 279° (W) 7,890 12.7 -51.0°
Reaches altitude 10° 22:30:47 10° 262° (W) 7,249 12.2 -52.4°
Maximum altitude 22:43:47 17° 231° (SW) 6,792 11.8 -54.5°
Drops below altitude 10° 22:56:40 10° 199° (SSW) 7,011 11.7 -56.4°
Enters shadow 22:57:58 - 196° (SSW) 7,071 11.7 -56.6°
